Regional Weather Roundup
Issued by NWS

Home | Current Version | Previous Version | Text Only | Print | Product List | Glossary On
Versions: 1 2 3 4 5 6 7 8 9 10 11 12 13 14 15 16 17 18 19 20 21 22 23 24 25 26 27 28 29 30 31 32 33 34 35 36 37 38 39 40 41 42 43 44 45 46 47 48 49 50
000
ASUS45 KREV 032210
RWRNV
NEVADA REGIONAL WEATHER ROUNDUP
NATIONAL WEATHER SERVICE RENO NV
300 PM PDT FRI JUL 03 2015

NOTE: "FAIR" INDICATES FEW OR NO CLOUDS BELOW 12,000 FEET WITH NO
SIGNIFICANT WEATHER AND/OR OBSTRUCTIONS TO VISIBILITY.

NVZ001-003-004-032300-
WESTERN NEVADA

CITY           SKY/WX    TMP DP  RH WIND       PRES   REMARKS
RENO           TSTM      79  62  56 NW24G32   30.01F
CARSON CITY    FAIR      91  45  19 NE16      30.05S
MINDEN           N/A     91  52  25 W12       30.04F
SLIDE MTN        N/A     68  52  56 SW7         N/A
PYRAMID LAKE     N/A     86 N/A N/A N6          N/A
FALLON         MOSUNNY   99  48  17 VRB7      29.93F
LOVELOCK       SUNNY     98  50  19 VRB6      29.94F
HAWTHORNE      SUNNY     95  46  18 N5        29.96F
$$

NVZ002-CAZ072-073-032300-
NORTHERN AND CENTRAL SIERRA

CITY           SKY/WX    TMP DP  RH WIND       PRES   REMARKS
S. LAKE TAHOE  MOSUNNY   80  55  42 VRB5      30.18F
TRUCKEE        PTSUNNY   73  55  53 NE14      30.19R
SQUAW VLY 8000 NOT AVBL
SUSANVILLE     SUNNY     88  55  33 SW14      30.01S
BLUE CANYON    MOSUNNY   78  55  44 W5        30.17F
MAMMOTH LAKES  FAIR      82  41  23 SE8       30.23F
BRIDGEPORT     FAIR      86  35  16 VRB7G18   30.17F
$$

NVZ030-031-036-032300-
NORTHERN NEVADA

CITY           SKY/WX    TMP DP  RH WIND       PRES   REMARKS
ELKO           MOSUNNY   93  44  18 VRB5      30.03F
WINNEMUCCA     MOSUNNY   96  47  18 W6        29.97F
WENDOVER       PTSUNNY   97  41  14 SE9       29.96F
$$

NVZ035-037-032300-
CENTRAL NEVADA

CITY           SKY/WX    TMP DP  RH WIND       PRES   REMARKS
ELY            PTSUNNY   81  55  40 E18       30.16F
EUREKA           N/A     89  41  18 VRB6      30.11R
$$

NVZ013-014-032300-
SOUTH CENTRAL NEVADA

CITY           SKY/WX    TMP DP  RH WIND       PRES   REMARKS
TONOPAH        MOSUNNY   93  39  15 SW12G17   30.08F
$$

NVZ017-020-022-032300-
SOUTHERN NEVADA

CITY           SKY/WX    TMP DP  RH WIND       PRES   REMARKS
LAS VEGAS      PTSUNNY  107  38   9 SW5       29.76F
N. LAS VEGAS   MOSUNNY  106  43  12 S6        29.79F
NELLIS AFB     SUNNY    107  45  12 SW5G17    29.76F
HENDERSON      SUNNY    107  47  13 W13G20    29.84F
MERCURY        PTSUNNY  100  43  14 VRB7      29.91F
$$


USA.gov is the U.S. government's official web portal to all federal, state and local government web resources and services.